Date String (YYYY-MM-DD hh:mm:ss) UTC,Instrument flags,Ambient pressure (hPa),Sample flow (lpm),Bypass flow (lpm),Sample temperature (°C),Ambient temperature (°C),ASC tube jacket temperature (°C),LED temperature (°C),Box temperature (°C),Sample RH (%),Span deviation,Mass concentration (μg/m³),Mass concentration (μg/m³),Mass concentration (μg/m³)
DateTimeUTC,F1_M11,P_M11,Q1_M11,Q2_M11,T1_M11,T2_M11,T3_M11,T4_M11,T5_M11,U1_M11,ZSPAN_M11,X2_M11,X0_M11,X1_M11
2022-01-04 04:00:00,,0820.0,5.02,0.00,23.6,22.8,00.0,32.6,25.3,07.3,0000.0,0002.59,0003.62,0002.23
2022-01-04 04:01:00,,0820.2,4.99,0.00,23.6,22.8,00.0,32.6,25.3,07.1,0000.0,0002.70,0004.11,0002.33
2022-01-04 04:02:00,,0820.1,4.99,0.00,23.6,22.8,00.0,32.6,25.3,08.3,0000.0,0003.06,0004.81,0002.68
2022-01-04 04:03:00,,0820.0,5.02,0.00,23.5,22.7,00.0,32.6,25.1,09.1,0000.0,0003.63,0006.05,0003.33
2022-01-04 04:04:00,,0820.0,4.99,0.00,23.4,22.6,00.0,32.6,25.0,08.9,0000.0,0003.91,0006.72,0003.60
2022-01-04 04:05:00,,0820.0,5.01,0.00,23.4,22.5,00.0,32.5,24.9,08.4,0000.0,0004.16,0007.46,0003.82
2022-01-04 04:06:00,,0820.0,4.99,0.00,23.3,22.5,00.0,32.5,24.9,07.7,0000.0,0004.23,0007.56,0003.89
2022-01-04 04:07:00,,0820.1,5.01,0.00,23.3,22.4,00.0,32.5,24.8,08.6,0000.0,0004.36,0007.68,0004.04
2022-01-04 04:08:00,,0820.2,4.99,0.00,23.2,22.3,00.0,32.5,24.8,08.9,0000.0,0004.58,0008.53,0004.24
2022-01-04 04:09:00,,0820.2,5.01,0.00,23.2,22.3,00.0,32.4,24.7,08.8,0000.0,0004.78,0008.74,0004.41
2022-01-04 04:10:00,,0820.0,4.99,0.00,23.1,22.2,00.0,32.4,24.6,08.7,0000.0,0004.93,0008.97,0004.55
2022-01-04 04:11:00,,0820.0,5.02,0.00,23.0,22.1,00.0,32.4,24.6,08.9,0000.0,0005.05,0009.15,0004.66
2022-01-04 04:12:00,,0819.9,4.99,0.00,23.0,22.1,00.0,32.3,24.5,08.9,0000.0,0005.14,0009.07,0004.75
2022-01-04 04:13:00,,0819.9,5.01,0.00,22.9,22.1,00.0,32.3,24.5,09.1,0000.0,0005.12,0008.96,0004.76
2022-01-04 04:14:00,,0819.9,5.00,0.00,22.9,22.0,00.0,32.2,24.4,09.2,0000.0,0004.75,0008.74,0004.43
2022-01-04 04:15:00,,0819.9,5.02,0.00,22.9,22.0,00.0,32.2,24.4,09.2,0000.0,0004.55,0008.70,0004.24
2022-01-04 04:16:00,,0819.9,4.99,0.00,22.8,22.0,00.0,32.2,24.4,09.3,0000.0,0004.43,0008.42,0004.12
2022-01-04 04:17:00,,0819.9,5.00,0.00,22.8,22.0,00.0,32.2,24.5,09.1,0000.0,0004.44,0008.38,0004.14
2022-01-04 04:18:00,,0820.0,5.01,0.00,22.8,22.0,00.0,32.1,24.5,09.1,0000.0,0004.37,0008.26,0004.06
2022-01-04 04:19:00,,0820.0,5.00,0.00,22.8,22.0,00.0,32.1,24.4,09.1,0000.0,0004.25,0007.53,0003.95
2022-01-04 04:20:00,,0820.0,5.00,0.00,22.8,22.0,00.0,32.1,24.3,09.3,0000.0,0004.20,0007.46,0003.89
2022-01-04 04:21:00,,0820.0,5.01,0.00,22.7,21.9,00.0,32.0,24.3,09.2,0000.0,0004.19,0007.43,0003.88
2022-01-04 04:22:00,,0819.9,5.00,0.00,22.7,21.9,00.0,32.0,24.3,09.0,0000.0,0004.17,0007.43,0003.87
2022-01-04 04:23:00,,0819.9,5.01,0.00,22.7,21.9,00.0,32.0,24.3,09.1,0000.0,0004.16,0007.44,0003.85
2022-01-04 04:24:00,,0820.0,5.00,0.00,22.7,21.8,00.0,32.0,24.2,09.1,0000.0,0004.13,0007.41,0003.81
2022-01-04 04:25:00,,0819.9,5.00,0.00,22.6,21.8,00.0,31.9,24.2,09.2,0000.0,0004.11,0006.89,0003.78
2022-01-04 04:26:00,,0819.9,5.01,0.00,22.6,21.8,00.0,31.9,24.1,09.2,0000.0,0004.17,0006.68,0003.80
2022-01-04 04:27:00,,0819.8,4.99,0.00,22.5,21.7,00.0,31.9,24.1,09.3,0000.0,0004.30,0007.00,0003.93
2022-01-04 04:28:00,,0819.8,5.00,0.00,22.5,21.6,00.0,31.8,24.0,09.3,0000.0,0004.43,0007.31,0004.05
2022-01-04 04:29:00,,0819.8,5.01,0.00,22.5,21.6,00.0,31.8,24.0,09.4,0000.0,0004.55,0007.52,0004.17
2022-01-04 04:30:00,,0819.8,4.99,0.00,22.4,21.6,00.0,31.8,24.0,09.4,0000.0,0004.63,0007.65,0004.25
2022-01-04 04:31:00,,0819.8,5.00,0.00,22.4,21.6,00.0,31.7,24.0,09.3,0000.0,0004.70,0007.86,0004.31
2022-01-04 04:32:00,,0819.9,5.00,0.00,22.4,21.6,00.0,31.7,24.0,09.4,0000.0,0004.71,0007.84,0004.35
2022-01-04 04:33:00,,0819.9,4.99,0.00,22.4,21.6,00.0,31.7,24.0,09.3,0000.0,0004.75,0007.84,0004.38
2022-01-04 04:34:00,,0819.8,5.01,0.00,22.4,21.6,00.0,31.7,24.0,09.3,0000.0,0004.78,0007.82,0004.42
2022-01-04 04:35:00,,0819.8,4.99,0.00,22.4,21.6,00.0,31.7,24.0,09.3,0000.0,0004.81,0008.07,0004.46
2022-01-04 04:36:00,,0819.7,5.00,0.00,22.4,21.6,00.0,31.6,24.0,09.2,0000.0,0004.82,0009.46,0004.48
2022-01-04 04:37:00,,0819.6,5.01,0.00,22.3,21.6,00.0,31.6,23.9,09.3,0000.0,0004.72,0009.36,0004.41
2022-01-04 04:38:00,,0819.7,4.99,0.00,22.3,21.5,00.0,31.6,23.9,09.3,0000.0,0004.54,0009.16,0004.25
2022-01-04 04:39:00,,0819.6,5.01,0.00,22.3,21.5,00.0,31.6,23.9,09.5,0000.0,0004.39,0009.00,0004.11
2022-01-04 04:40:00,,0819.7,5.00,0.00,22.2,21.5,00.0,31.5,23.8,09.5,0000.0,0004.26,0008.76,0004.00
2022-01-04 04:41:00,,0819.7,5.01,0.00,22.2,21.5,00.0,31.5,23.8,09.4,0000.0,0004.14,0008.59,0003.90
2022-01-04 04:42:00,,0819.6,4.99,0.00,22.2,21.5,00.0,31.5,23.8,09.5,0000.0,0004.04,0008.34,0003.81
2022-01-04 04:43:00,,0819.7,4.99,0.00,22.2,21.4,00.0,31.5,23.7,09.6,0000.0,0004.04,0008.38,0003.78
2022-01-04 04:44:00,,0819.8,5.01,0.00,22.1,21.4,00.0,31.4,23.7,09.7,0000.0,0004.02,0008.45,0003.75
2022-01-04 04:45:00,,0819.9,5.00,0.00,22.1,21.4,00.0,31.4,23.7,09.8,0000.0,0003.97,0008.39,0003.70
2022-01-04 04:46:00,,0819.8,4.99,0.00,22.1,21.4,00.0,31.4,23.7,09.4,0000.0,0003.89,0008.14,0003.63
2022-01-04 04:47:00,,0819.7,5.01,0.00,22.1,21.4,00.0,31.4,23.7,08.9,0000.0,0003.81,0006.34,0003.57
2022-01-04 04:48:00,,0819.8,5.01,0.00,22.1,21.4,00.0,31.3,23.6,08.7,0000.0,0003.76,0005.68,0003.52
2022-01-04 04:49:00,,0819.7,4.99,0.00,22.0,21.3,00.0,31.3,23.6,08.6,0000.0,0003.72,0005.61,0003.47
2022-01-04 04:50:00,,0819.7,5.00,0.00,22.0,21.3,00.0,31.3,23.6,08.7,0000.0,0003.70,0005.52,0003.45
2022-01-04 04:51:00,,0819.6,5.00,0.00,22.0,21.3,00.0,31.3,23.6,08.7,0000.0,0003.67,0005.45,0003.41
2022-01-04 04:52:00,,0819.5,5.00,0.00,22.0,21.3,00.0,31.3,23.7,08.7,0000.0,0003.63,0005.41,0003.37
2022-01-04 04:53:00,,0819.6,5.00,0.00,22.0,21.3,00.0,31.2,23.7,08.8,0000.0,0003.58,0005.36,0003.32
2022-01-04 04:54:00,,0819.6,4.99,0.00,22.0,21.3,00.0,31.2,23.6,08.9,0000.0,0003.50,0005.74,0003.23
2022-01-04 04:55:00,,0819.6,5.01,0.00,22.0,21.3,00.0,31.2,23.6,08.9,0000.0,0003.42,0006.08,0003.16
2022-01-04 04:56:00,,0819.6,4.99,0.00,22.0,21.3,00.0,31.2,23.5,08.9,0000.0,0003.38,0005.96,0003.13
2022-01-04 04:57:00,,0819.7,5.00,0.00,21.9,21.2,00.0,31.2,23.5,08.8,0000.0,0003.40,0005.95,0003.13
2022-01-04 04:58:00,,0819.5,5.00,0.00,21.9,21.2,00.0,31.1,23.5,08.7,0000.0,0003.41,0005.93,0003.14
2022-01-04 04:59:00,,0819.3,5.01,0.00,21.9,21.2,00.0,31.1,23.5,08.4,0000.0,0003.43,0005.91,0003.17
